Time,TemperatureF,DewpointF,PressureIn,WindDirection,WindDirectionDegrees,WindSpeedMPH,WindSpeedGustMPH,Humidity,HourlyPrecipIn,Conditions,Clouds,dailyrainin,SolarRadiationWatts/m^2,SoftwareType,DateUTC
2013-01-13 00:02:00,10.0,3.0,-100.00,West,278,3.0,9.0,73,0.00,,,0.03,0.000000,,2013-01-13 06:02:00,
2013-01-13 00:33:00,10.0,3.0,-100.00,West,278,3.0,9.0,73,0.00,,,0.03,0.000000,,2013-01-13 06:33:00,
2013-01-13 00:42:00,10.0,3.0,-100.00,West,278,3.0,9.0,73,0.00,,,0.03,0.000000,,2013-01-13 06:42:00,
2013-01-13 00:52:00,10.0,3.0,-100.00,West,278,3.0,9.0,73,0.00,,,0.03,0.000000,,2013-01-13 06:52:00,
2013-01-13 01:02:00,10.0,3.0,-100.00,WNW,287,2.0,8.0,74,0.00,,,0.02,0.000000,,2013-01-13 07:02:00,
2013-01-13 01:33:00,10.0,3.0,-100.00,WNW,287,2.0,8.0,74,0.00,,,0.02,0.000000,,2013-01-13 07:33:00,
2013-01-13 01:42:00,10.0,3.0,-100.00,WNW,287,2.0,8.0,74,0.00,,,0.02,0.000000,,2013-01-13 07:42:00,
2013-01-13 01:52:00,10.0,3.0,-100.00,WNW,287,2.0,8.0,74,0.00,,,0.02,0.000000,,2013-01-13 07:52:00,
2013-01-13 02:02:00,10.0,3.0,-100.00,NW,318,4.0,7.0,74,0.00,,,-99.99,0.000000,,2013-01-13 08:02:00,
2013-01-13 02:32:00,10.0,3.0,-100.00,NW,318,4.0,7.0,74,0.00,,,-99.99,0.000000,,2013-01-13 08:32:00,
2013-01-13 02:42:00,10.0,3.0,-100.00,NW,318,4.0,7.0,74,0.00,,,-99.99,0.000000,,2013-01-13 08:42:00,
2013-01-13 02:53:00,10.0,3.0,-100.00,NW,318,4.0,7.0,74,0.00,,,-99.99,0.000000,,2013-01-13 08:53:00,
2013-01-13 03:02:00,9.0,0.0,-100.00,NW,322,5.0,10.0,66,0.00,,,0.01,0.000000,,2013-01-13 09:02:00,
2013-01-13 03:22:00,9.0,0.0,-100.00,NW,322,5.0,10.0,66,0.00,,,0.01,0.000000,,2013-01-13 09:22:00,
2013-01-13 03:32:00,9.0,0.0,-100.00,NW,322,5.0,10.0,66,0.00,,,0.01,0.000000,,2013-01-13 09:32:00,
2013-01-13 03:42:00,9.0,0.0,-100.00,NW,322,5.0,10.0,66,0.00,,,0.01,0.000000,,2013-01-13 09:42:00,
2013-01-13 03:52:00,9.0,0.0,-100.00,NW,322,5.0,10.0,66,0.00,,,0.01,0.000000,,2013-01-13 09:52:00,
2013-01-13 04:02:00,8.0,0.0,-100.00,NW,316,4.0,9.0,69,0.00,,,-99.99,0.000000,,2013-01-13 10:02:00,
2013-01-13 04:33:00,8.0,0.0,-100.00,NW,316,4.0,9.0,69,0.00,,,-99.99,0.000000,,2013-01-13 10:33:00,
2013-01-13 04:42:00,8.0,0.0,-100.00,NW,316,4.0,9.0,69,0.00,,,-99.99,0.000000,,2013-01-13 10:42:00,
2013-01-13 04:52:00,8.0,0.0,-100.00,NW,316,4.0,9.0,69,0.00,,,-99.99,0.000000,,2013-01-13 10:52:00,
2013-01-13 05:02:00,5.0,-2.0,-100.00,NNW,327,4.0,8.0,72,0.00,,,0.00,0.000000,,2013-01-13 11:02:00,
2013-01-13 05:33:00,5.0,-2.0,-100.00,NNW,327,4.0,8.0,72,0.00,,,0.00,0.000000,,2013-01-13 11:33:00,
2013-01-13 05:42:00,5.0,-2.0,-100.00,NNW,327,4.0,8.0,72,0.00,,,0.00,0.000000,,2013-01-13 11:42:00,
2013-01-13 05:53:00,5.0,-2.0,-100.00,NNW,327,4.0,8.0,72,0.00,,,0.00,0.000000,,2013-01-13 11:53:00,
2013-01-13 06:02:00,4.0,-2.0,-100.00,WNW,300,2.0,5.0,77,0.00,,,0.00,0.000000,,2013-01-13 12:02:00,
2013-01-13 06:33:00,4.0,-2.0,-100.00,WNW,300,2.0,5.0,77,0.00,,,0.00,0.000000,,2013-01-13 12:33:00,
2013-01-13 06:42:00,4.0,-2.0,-100.00,WNW,300,2.0,5.0,77,0.00,,,0.00,0.000000,,2013-01-13 12:42:00,
2013-01-13 06:53:00,4.0,-2.0,-100.00,WNW,300,2.0,5.0,77,0.00,,,0.00,0.000000,,2013-01-13 12:53:00,
2013-01-13 07:02:00,2.0,-3.0,-100.00,WSW,257,2.0,4.0,78,0.00,,,0.00,0.000000,,2013-01-13 13:02:00,
2013-01-13 07:22:00,2.0,-3.0,-100.00,WSW,257,2.0,4.0,78,0.00,,,0.00,0.000000,,2013-01-13 13:22:00,
2013-01-13 07:33:00,2.0,-3.0,-100.00,WSW,257,2.0,4.0,78,0.00,,,0.00,0.000000,,2013-01-13 13:33:00,
2013-01-13 07:43:00,2.0,-3.0,-100.00,WSW,257,2.0,4.0,78,0.00,,,0.00,0.000000,,2013-01-13 13:43:00,
2013-01-13 07:53:00,2.0,-3.0,-100.00,WSW,257,2.0,4.0,78,0.00,,,0.00,0.000000,,2013-01-13 13:53:00,
2013-01-13 08:02:00,2.0,-3.0,-100.00,West,266,2.0,5.0,79,0.00,,,0.00,3.000000,,2013-01-13 14:02:00,
2013-01-13 08:33:00,2.0,-3.0,-100.00,West,266,2.0,5.0,79,0.00,,,0.00,3.000000,,2013-01-13 14:33:00,
2013-01-13 08:43:00,2.0,-3.0,-100.00,West,266,2.0,5.0,79,0.00,,,0.00,3.000000,,2013-01-13 14:43:00,
2013-01-13 08:53:00,2.0,-3.0,-100.00,West,266,2.0,5.0,79,0.00,,,0.00,3.000000,,2013-01-13 14:53:00,
2013-01-13 09:02:00,6.0,-1.0,-100.00,WNW,292,4.0,8.0,73,0.00,,,0.00,106.000000,,2013-01-13 15:02:00,
2013-01-13 09:23:00,6.0,-1.0,-100.00,WNW,292,4.0,8.0,73,0.00,,,0.00,106.000000,,2013-01-13 15:23:00,
2013-01-13 09:33:00,6.0,-1.0,-100.00,WNW,292,4.0,8.0,73,0.00,,,0.00,106.000000,,2013-01-13 15:33:00,
2013-01-13 09:43:00,6.0,-1.0,-100.00,WNW,292,4.0,8.0,73,0.00,,,0.00,106.000000,,2013-01-13 15:43:00,
2013-01-13 09:53:00,6.0,-1.0,-100.00,WNW,292,4.0,8.0,73,0.00,,,0.00,106.000000,,2013-01-13 15:53:00,
2013-01-13 10:02:00,6.0,-1.0,-100.00,NW,307,4.0,8.0,72,0.00,,,0.00,142.000000,,2013-01-13 16:02:00,
2013-01-13 10:33:00,6.0,-1.0,-100.00,NW,307,4.0,8.0,72,0.00,,,0.00,142.000000,,2013-01-13 16:33:00,
2013-01-13 10:43:00,6.0,-1.0,-100.00,NW,307,4.0,8.0,72,0.00,,,0.00,142.000000,,2013-01-13 16:43:00,
2013-01-13 10:53:00,6.0,-1.0,-100.00,NW,307,4.0,8.0,72,0.00,,,0.00,142.000000,,2013-01-13 16:53:00,
2013-01-13 11:02:00,8.0,0.0,-100.00,WNW,299,4.0,8.0,69,0.00,,,0.00,138.000000,,2013-01-13 17:02:00,
2013-01-13 11:33:00,8.0,0.0,-100.00,WNW,299,4.0,8.0,69,0.00,,,0.00,138.000000,,2013-01-13 17:33:00,
2013-01-13 11:43:00,8.0,0.0,-100.00,WNW,299,4.0,8.0,69,0.00,,,0.00,138.000000,,2013-01-13 17:43:00,
2013-01-13 11:53:00,8.0,0.0,-100.00,WNW,299,4.0,8.0,69,0.00,,,0.00,138.000000,,2013-01-13 17:53:00,
2013-01-13 12:02:00,9.0,0.0,-100.00,WNW,294,4.0,8.0,66,0.00,,,0.00,148.000000,,2013-01-13 18:02:00,
2013-01-13 12:33:00,9.0,0.0,-100.00,WNW,294,4.0,8.0,66,0.00,,,0.00,148.000000,,2013-01-13 18:33:00,
2013-01-13 12:43:00,9.0,0.0,-100.00,WNW,294,4.0,8.0,66,0.00,,,0.00,148.000000,,2013-01-13 18:43:00,
2013-01-13 12:53:00,9.0,0.0,-100.00,WNW,294,4.0,8.0,66,0.00,,,0.00,148.000000,,2013-01-13 18:53:00,
2013-01-13 13:02:00,8.0,-1.0,-100.00,West,279,4.0,9.0,65,0.00,,,0.00,144.000000,,2013-01-13 19:02:00,
2013-01-13 13:33:00,8.0,-1.0,-100.00,West,279,4.0,9.0,65,0.00,,,0.00,144.000000,,2013-01-13 19:33:00,
2013-01-13 13:43:00,8.0,-1.0,-100.00,West,279,4.0,9.0,65,0.00,,,0.00,144.000000,,2013-01-13 19:43:00,
2013-01-13 13:53:00,8.0,-1.0,-100.00,West,279,4.0,9.0,65,0.00,,,0.00,144.000000,,2013-01-13 19:53:00,
2013-01-13 14:02:00,8.0,-2.0,-100.00,WNW,287,4.0,9.0,64,0.00,,,0.00,127.000000,,2013-01-13 20:02:00,
2013-01-13 14:33:00,8.0,-2.0,-100.00,WNW,287,4.0,9.0,64,0.00,,,0.00,127.000000,,2013-01-13 20:33:00,
2013-01-13 14:43:00,8.0,-2.0,-100.00,WNW,287,4.0,9.0,64,0.00,,,0.00,127.000000,,2013-01-13 20:43:00,
2013-01-13 14:53:00,8.0,-2.0,-100.00,WNW,287,4.0,9.0,64,0.00,,,0.00,127.000000,,2013-01-13 20:53:00,
2013-01-13 15:02:00,8.0,-1.0,-100.00,WNW,292,4.0,8.0,67,0.00,,,0.00,83.000000,,2013-01-13 21:02:00,
2013-01-13 15:33:00,8.0,-1.0,-100.00,WNW,292,4.0,8.0,67,0.00,,,0.00,83.000000,,2013-01-13 21:33:00,
2013-01-13 15:43:00,8.0,-1.0,-100.00,WNW,292,4.0,8.0,67,0.00,,,0.00,83.000000,,2013-01-13 21:43:00,
2013-01-13 15:53:00,8.0,-1.0,-100.00,WNW,292,4.0,8.0,67,0.00,,,0.00,83.000000,,2013-01-13 21:53:00,
2013-01-13 16:02:00,7.0,0.0,-100.00,WNW,286,3.0,8.0,72,0.00,,,0.00,48.000000,,2013-01-13 22:02:00,
2013-01-13 16:23:00,7.0,0.0,-100.00,WNW,286,3.0,8.0,72,0.00,,,0.00,48.000000,,2013-01-13 22:23:00,
2013-01-13 16:33:00,7.0,0.0,-100.00,WNW,286,3.0,8.0,72,0.00,,,0.00,48.000000,,2013-01-13 22:33:00,
2013-01-13 16:43:00,7.0,0.0,-100.00,WNW,286,3.0,8.0,72,0.00,,,0.00,48.000000,,2013-01-13 22:43:00,
2013-01-13 16:52:00,7.0,0.0,-100.00,WNW,286,3.0,8.0,72,0.00,,,0.00,48.000000,,2013-01-13 22:52:00,
2013-01-13 17:02:00,6.0,0.0,-100.00,West,269,4.0,9.0,74,0.00,,,0.00,10.000000,,2013-01-13 23:02:00,
2013-01-13 17:33:00,6.0,0.0,-100.00,West,269,4.0,9.0,74,0.00,,,0.00,10.000000,,2013-01-13 23:33:00,
2013-01-13 17:43:00,6.0,0.0,-100.00,West,269,4.0,9.0,74,0.00,,,0.00,10.000000,,2013-01-13 23:43:00,
2013-01-13 17:53:00,6.0,0.0,-100.00,West,269,4.0,9.0,74,0.00,,,0.00,10.000000,,2013-01-13 23:53:00,
2013-01-13 18:02:00,5.0,-1.0,-100.00,West,263,3.0,12.0,74,0.00,,,0.00,0.000000,,2013-01-14 00:02:00,
2013-01-13 18:33:00,5.0,-1.0,-100.00,West,263,3.0,12.0,74,0.00,,,0.00,0.000000,,2013-01-14 00:33:00,
2013-01-13 18:43:00,5.0,-1.0,-100.00,West,263,3.0,12.0,74,0.00,,,0.00,0.000000,,2013-01-14 00:43:00,
2013-01-13 18:53:00,5.0,-1.0,-100.00,West,263,3.0,12.0,74,0.00,,,0.00,0.000000,,2013-01-14 00:53:00,
2013-01-13 19:02:00,5.0,-1.0,-100.00,West,277,3.0,8.0,77,0.00,,,0.00,0.000000,,2013-01-14 01:02:00,
2013-01-13 19:33:00,5.0,-1.0,-100.00,West,277,3.0,8.0,77,0.00,,,0.00,0.000000,,2013-01-14 01:33:00,
2013-01-13 19:42:00,5.0,-1.0,-100.00,West,277,3.0,8.0,77,0.00,,,0.00,0.000000,,2013-01-14 01:42:00,
2013-01-13 19:53:00,5.0,-1.0,-100.00,West,277,3.0,8.0,77,0.00,,,0.00,0.000000,,2013-01-14 01:53:00,
2013-01-13 20:02:00,6.0,0.0,-100.00,West,267,4.0,10.0,77,0.00,,,0.00,0.000000,,2013-01-14 02:02:00,
2013-01-13 20:33:00,6.0,0.0,-100.00,West,267,4.0,10.0,77,0.00,,,0.00,0.000000,,2013-01-14 02:33:00,
2013-01-13 20:43:00,6.0,0.0,-100.00,West,267,4.0,10.0,77,0.00,,,0.00,0.000000,,2013-01-14 02:43:00,
2013-01-13 20:53:00,6.0,0.0,-100.00,West,267,4.0,10.0,77,0.00,,,0.00,0.000000,,2013-01-14 02:53:00,
2013-01-13 21:02:00,6.0,0.0,-100.00,West,274,4.0,10.0,77,0.00,,,0.00,0.000000,,2013-01-14 03:02:00,
2013-01-13 21:33:00,6.0,0.0,-100.00,West,274,4.0,10.0,77,0.00,,,0.00,0.000000,,2013-01-14 03:33:00,
2013-01-13 21:43:00,6.0,0.0,-100.00,West,274,4.0,10.0,77,0.00,,,0.00,0.000000,,2013-01-14 03:43:00,
2013-01-13 21:53:00,6.0,0.0,-100.00,West,274,4.0,10.0,77,0.00,,,0.00,0.000000,,2013-01-14 03:53:00,
2013-01-13 22:02:00,4.0,-1.0,-100.00,WNW,292,3.0,13.0,78,0.00,,,0.00,0.000000,,2013-01-14 04:02:00,
2013-01-13 22:32:00,4.0,-1.0,-100.00,WNW,292,3.0,13.0,78,0.00,,,0.00,0.000000,,2013-01-14 04:32:00,
2013-01-13 22:42:00,4.0,-1.0,-100.00,WNW,292,3.0,13.0,78,0.00,,,0.00,0.000000,,2013-01-14 04:42:00,
2013-01-13 22:53:00,4.0,-1.0,-100.00,WNW,292,3.0,13.0,78,0.00,,,0.00,0.000000,,2013-01-14 04:53:00,
2013-01-13 23:02:00,3.0,-2.0,-100.00,WSW,244,3.0,10.0,78,0.00,,,0.00,0.000000,,2013-01-14 05:02:00,
2013-01-13 23:22:00,3.0,-2.0,-100.00,WSW,244,3.0,10.0,78,0.00,,,0.00,0.000000,,2013-01-14 05:22:00,
2013-01-13 23:33:00,3.0,-2.0,-100.00,WSW,244,3.0,10.0,78,0.00,,,0.00,0.000000,,2013-01-14 05:33:00,
2013-01-13 23:43:00,3.0,-2.0,-100.00,WSW,244,3.0,10.0,78,0.00,,,0.00,0.000000,,2013-01-14 05:43:00,
2013-01-13 23:53:00,3.0,-2.0,-100.00,WSW,244,3.0,10.0,78,0.00,,,0.00,0.000000,,2013-01-14 05:53:00,